PSLV R/B, 40058

Orbit data source: Space-Track

PSLV R/B, 40058 is space debris in SSO originally from a launch on Mon, 30 Jun 2014 UTC launched from the Sirharikota (SRI). Debris objects in space refer to the collection of defunct objects orbiting the Earth. Examples of debris include non-operational satellites, rocket bodies, and fragments generated from explosions, collisions, or faulty payload assembly.

Loading next visibility...
Identifier
40058, 2014-034F
Orbit
SSO
Country
Flag of ININ / IND
Related business
Manufacturer
VSSC/LPSC
Mission
Spacecraft
Bus & Motor
PS-4, Unknown motor
Mass
920 kg wet, 920 kg dry
Launch date (UTC)
2014-06-30 (11 years ago)
Launch vehicle
Unknown
Launch site
Sirharikota (SRI)
Object type
Payload
Rocket body
Debris
Shape & HBR
Cyl + Cyl + 2 Nozzle, 1.6 m
Radar Cross Section
3.727 m², Large (>1 m²)

Expand to show TLE details & history
Last TLE update: 9 hours ago

TLE from 9 hours ago
0 PSLV R/B
1 40058U 14034F   25342.86538206  .00002407  00000-0  29601-3 0  9997
2 40058  98.3058 191.9817 0019275 227.6199 132.3383 14.83900277617848
Epoch: 2025-12-08T20:46Z
TLE epoch observation values (Epoch: 2025-12-08T20:46:09.009Z)
Latitude
-0.00004°
Longitude
162.58589°
Altitude
629.151 km
Speed
7.539 km/s
True Right ascension
12h 47m 55s
True Declination
0° 00' 00"
Sunlit
Object was in daylight at epoch
Visualization orbit readout
Latitude
Unknown
Longitude
Unknown
Altitude
Unknown
Speed
Unknown
Apparent Right ascension
Unknown
Apparent Declination
Unknown
Sunlit
N/A
Visualization observer readout
Local Sidereal Time
03:34:53
Azimuth
Unknown
Elevation
Unknown
Doppler factor
Unknown
Orbital elements
Apogee altitude
627.572 km
Perigee altitude
600.617 km
Semi-major axis
6,992.231 km
Eccentricity
0.00193
Inclination
98.3058°
RAAN
191.9817°
Arg. of periapsis
227.6199°
True anomaly
132.5013°
Mean anomaly
132.3383°
Eccentric anomaly
132.41983°
Mean motion
3.7121 °/min
Orbital period
96.98 mins
BSTAR
0.00029601
Loading maneuver chart data...
Computing Atmospheric mass density...
Loading historical data...
Loading historical data...
Loading historical data...
Loading historical data...
Loading historical data...
Loading historical data...
Loading historical data...
Other satellites on launch #34 in the year 2014 (2014-06-30 UTC)

Documentation

Showing up to 5 results
|